SCP
0 -0 -0 0 0 0 0 0 0 0 0 -0 -0 -0 -0 -0 -0 -0 -0 -0 -0 -0 -0 -0 -0 -0 -0 -0 -0 -0 -0 -0 -0 -0 -0 0 0 -0 -0 -0 -0 -0 -0
-0 -0 0 -0 0 0 0 0 0 0 0 -0 -0 -0 -0 -0 -0 -0 -0 -0 -0 -0 -0 -0 -0 -0 -0 -0 -0 -0 -0 -0 -0 -0 -0 -0 0 -0 -0 0 0 0 0
0 -0 -0 0 0 0 0 0 0 0 0 0 -0 -0 -0 -0 -0 -0 -0 -0 -0 -0 -0 -0 -0 -0 -0 -0 -0 -0 -0 -0 -0 -0 0 -0 -0 0 0 0 0 0 0
0 0 0 0 0 0 0 0 0 0 0 0 0 0 0 0 0 0 0 0 0 0 -0 0 0 -0 -0 0 0 0 0 0 0 0 -0 -0 -0 0 0 0 0 0 0
0 0 0 0 0 0 0 0 0 0 0 0 0 0 0 0 0 0 0 0 0 0 0 0 0 0 0 -0 0 0 0 -0 -0 -0 0 0 0 0 0 0 0 0 0
0 0 0 0 0 0 0 0 0 0 0 0 0 0 0 0 0 0 0 0 0 0 0 0 0 -0 -0 -0 -0 -0 -0 -0 -0 -0 0 0 0 0 0 0 0 0 0
0 0 0 0 0 0 0 0 0 0 0 0 0 0 0 0 0 0 0 0 0 0 -0 -0 -0 -0 -0 -0 -0 -0 -0 -0 -0 -0 0 0 0 0 0 0 0 0 0
0 0 0 0 0 0 0 0 0 0 0 0 0 0 0 0 0 0 0 0 -0 -0 -0 -0 -0 -0 -0 -0 -0 -0 -0 -0 -0 -0 0 0 0 0 0 0 0 0 0
0 0 0 0 0 0 0 0 0 0 0 0 0 0 0 0 0 -0 -0 -0 -0 -0 -0 -0 -0 -0 -0 -0 -0 -0 -0 -0 -0 0 0 0 0 0 0 0 0 0 0
0 0 0 0 0 0 0 0 0 0 0 0 0 0 0 -0 -0 0 -0 0 -0 -0 -0 -0 -0 -0 -0 -0 -0 -0 -0 -0 -0 0 0 0 0 0 0 0 0 0 0
0 0 0 0 0 0 0 0 0 0 0 0 0 0 0 -0 0 0 0 0 -0 -0 -0 -0 -0 -0 -0 -0 -0 -0 -0 0 0 0 0 0 0 0 0 0 0 0 0
0 0 0 0 0 0 0 0 0 0 0 0 0 0 0 0 0 0 -0 -0 -0 -0 -0 -0 -0 -0 -0 0 0 -0 0 0 0 0 0 0 0 0 0 0 0 0 0
0 0 0 0 0 0 0 0 0 0 0 0 0 0 0 0 0 0 0 0 0 0 0 0 0 0 0 0 0 0 0 0 0 0 0 0 0 0 0 0 0 0 0
0 0 0 0 0 0 0 0 0 0 0 0 0 0 0 0 0 0 0 0 0 0 0 0 0 0 0 0 0 0 0 0 0 0 0 0 0 0 0 0 0 0 0
0 0 0 0 0 0 0 0 0 0 0 0 0 0 0 0 0 0 0 0 0 0 0 0 0 0 0 0 0 0 0 0 0 0 0 0 0 0 0 0 0 0 0
0 0 0 0 0 0 0 0 0 0 0 0 0 0 0 0 0 0 0 0 0 0 0 0 0 0 0 0 0 0 0 0 0 0 0 0 0 0 0 0 0 0 0
0 0 0 0 0 0 0 0 0 0 0 0 0 0 0 0 0 0 0 0 0 0 0 0 0 0 0 0 0 0 0 0 0 0 0 0 0 0 0 0 0 0 0
0 0 0 0 0 0 0 0 0 0 0 0 0 0 0 0 0 0 0 0 0 0 0 0 0 0 0 0 0 0 0 0 0 0 0 0 0 0 0 0 0 0 0
0 0 0 0 0 0 0 0 0 0 0 0 0 0 0 0 0 0 0 0 0 0 0 0 0 0 0 0 0 0 0 0 0 0 0 0 0 0 0 0 0 0 0
0 0 0 0 0 0 0 0 0 0 0 0 0 0 0 0 0 0 0 0 0 0 0 0 0 0 0 0 0 0 0 0 0 0 0 0 0 0 0 0 0 0 0
0 0 0 0 0 0 0 0 0 0 0 0 0 0 0 0 0 0 0 0 0 0 0 0 0 0 0 0 0 0 0 0 0 0 0 0 0 0 0 0 0 0 0
0 0 0 0 0 0 0 0 0 0 0 0 0 0 0 0 0 0 0 0 0 0 0 0 0 0 0 0 0 0 0 0 0 0 0 0 0 0 0 0 0 0 0
0 0 0 0 0 0 0 0 0 0 0 0 0 0 0 0 0 0 0 0 0 0 0 0 0 0 0 0 0 0 0 0 0 0 0 0 0 0 0 0 0 0 0
0 0 0 0 0 0 0 0 0 0 0 0 0 0 0 0 0 0 0 0 0 0 0 0 0 0 0 0 0 0 0 0 0 0 0 0 0 0 0 0 0 0 0
0 0 0 0 0 0 0 0 0 0 0 0 0 0 0 0 0 0 0 0 0 0 0 0 0 0 0 0 0 0 0 0 0 0 0 0 0 0 0 0 0 0 0
0 0 0 0 0 0 0 0 0 0 0 0 0 0 0 0 0 0 0 0 0 0 0 0 0 0 0 0 0 0 0 0 0 0 0 0 0 0 0 0 0 0 0
Wind_Speed_500mb
29 29 22 20 29 34 28 20 14 17 19 16 13 10 10 13 16 19 20 22 23 23 23 23 23 23 23 23 22 22 22 21 21 21 20 19 18 17 16 12 6 10 9
35 30 24 20 26 31 22 15 11 13 15 13 12 11 12 15 16 18 20 22 21 21 22 23 22 22 22 21 21 20 20 20 19 18 19 20 20 18 17 16 15 15 15
32 30 25 23 27 27 24 19 17 16 15 17 17 16 16 16 17 19 20 20 20 21 20 20 20 20 20 20 20 20 20 20 19 19 17 17 17 18 18 18 18 19 19
34 30 27 30 28 25 26 21 19 18 18 17 16 16 17 17 17 16 17 17 16 17 17 18 18 18 19 19 20 21 20 20 20 19 19 18 17 22 22 21 20 20 20
33 31 31 30 26 25 20 16 16 18 18 18 17 16 15 15 15 14 14 15 15 17 16 17 18 20 21 20 19 20 21 23 23 24 19 19 21 19 25 25 24 24 26
32 29 37 33 27 25 20 13 11 15 16 16 15 14 13 12 13 14 14 15 16 16 17 19 22 22 23 22 23 24 24 24 23 15 18 20 23 27 28 28 27 27 27
34 34 35 31 28 27 18 12 7 13 14 13 13 12 11 11 11 12 14 14 15 16 18 19 20 20 20 22 23 23 24 25 24 20 21 23 21 27 26 26 25 26 27
33 33 35 30 28 29 21 12 7 10 11 11 10 9 10 11 12 14 15 15 17 18 19 20 21 22 23 23 23 24 25 26 24 17 22 22 22 27 26 25 28 31 32
31 26 27 28 31 26 19 11 10 11 11 10 9 9 11 11 12 13 14 16 18 20 22 23 24 24 25 25 26 26 27 26 24 18 21 15 29 29 29 28 28 29 31
30 29 28 24 26 26 21 16 10 9 7 7 8 8 8 9 12 14 14 16 17 20 22 23 23 23 24 25 26 27 26 24 25 17 16 20 28 28 28 30 30 29 28
29 27 31 26 23 20 21 17 10 9 7 5 4 5 5 10 9 11 13 16 18 20 22 23 24 26 26 29 30 30 27 18 18 15 18 28 30 31 31 30 28 25 25
30 25 30 23 26 19 16 15 10 8 6 5 5 4 6 4 8 10 14 16 18 18 20 21 23 26 27 21 19 25 20 22 15 18 25 30 28 27 25 22 19 19 20
29 31 32 26 24 23 19 16 12 11 8 6 6 2 2 5 7 14 14 13 19 18 13 17 18 24 29 29 27 25 24 21 22 14 22 26 22 16 12 13 18 22 23
28 29 30 30 25 23 11 14 11 9 10 6 2 3 5 8 11 11 8 14 17 21 19 19 21 25 27 24 23 23 21 17 15 12 21 24 23 22 22 25 23 25 28
29 27 29 24 20 16 19 16 18 15 12 7 5 6 9 11 12 18 20 24 20 17 18 20 23 24 27 24 21 20 19 18 12 11 15 18 16 17 21 22 23 24 23
25 26 23 25 23 22 24 25 22 14 11 8 7 8 9 13 17 19 15 13 15 17 21 20 21 21 20 19 19 21 17 10 13 9 12 23 17 19 22 25 25 23 24
32 31 33 37 37 32 31 24 19 14 14 17 12 10 11 11 2 3 8 13 17 17 15 17 14 18 21 22 21 20 13 16 8 11 13 16 19 27 27 30 32 31 37
29 30 32 29 32 34 27 19 16 21 19 15 13 9 10 8 4 5 12 16 14 15 18 18 20 23 26 27 25 17 8 19 12 18 18 21 22 27 36 39 36 37 38
34 34 35 35 36 33 28 29 26 24 19 15 9 3 1 4 5 9 10 11 13 16 20 23 26 29 31 31 29 20 6 20 12 17 20 23 29 33 35 37 39 41 41
32 37 39 40 38 34 35 29 20 24 16 12 6 1 4 6 7 8 11 12 15 19 21 24 28 30 33 34 29 21 2 19 12 17 17 28 33 35 36 36 32 27 38
34 38 43 44 41 37 34 30 25 23 13 9 5 4 5 1 7 8 11 15 19 22 26 28 28 29 30 30 27 22 3 12 12 14 26 28 32 36 38 37 34 35 34
32 35 40 44 42 39 38 35 23 15 13 7 6 4 5 4 5 10 15 19 22 24 26 27 27 27 28 30 29 17 10 5 19 16 17 32 34 36 37 38 34 36 42
33 36 40 44 43 41 45 39 27 19 10 10 9 9 3 4 8 12 17 20 23 24 26 27 28 28 26 27 26 18 8 7 38 7 17 27 37 39 40 41 31 32 42
32 34 36 36 41 43 34 27 20 10 11 14 12 6 0 7 12 15 18 21 22 23 23 25 24 25 25 25 21 20 14 14 8 21 29 28 44 39 44 46 32 31 40
31 32 39 42 41 35 29 23 14 15 17 15 10 2 5 10 13 17 19 20 22 22 21 21 23 24 25 25 24 23 18 10 15 23 35 46 50 50 42 45 35 35 47
38 32 32 34 36 34 26 21 19 18 16 11 4 2 6 9 12 16 20 20 18 18 20 22 25 26 26 26 27 27 25 20 21 21 33 40 41 33 46 30 41 40 52
Wind_Direction_500mb
159 157 143 134 134 142 141 145 116 119 130 139 145 113 99 81 84 85 82 78 71 68 65 60 56 52 51 50 46 43 41 41 39 36 33 28 24 19 16 21 11 345 314
165 154 141 138 140 149 147 139 128 125 133 134 126 112 103 93 86 79 74 70 67 61 56 52 47 43 41 39 39 37 34 32 29 27 22 21 13 7 2 357 351 344 337
151 149 133 130 134 130 125 112 113 114 117 119 115 107 97 86 77 72 67 62 57 54 49 45 40 35 31 29 27 27 25 24 21 18 17 15 354 359 350 346 342 337 332
150 143 145 136 131 128 129 108 104 111 112 107 101 96 90 83 76 68 65 60 53 48 39 33 29 25 25 20 16 14 14 15 13 11 15 355 359 340 345 340 337 333 332
143 149 148 144 150 143 137 117 104 116 114 111 102 93 85 78 73 66 55 47 40 34 30 25 21 20 15 13 12 10 6 6 5 12 349 344 350 338 347 347 347 344 341
148 152 149 145 150 159 136 119 96 111 113 113 107 97 85 75 65 55 45 36 30 27 23 19 16 16 12 8 6 3 1 1 358 3 349 342 352 349 345 344 343 340 336
149 165 159 148 154 157 141 144 120 125 123 115 107 95 78 60 50 42 34 33 32 27 20 18 17 14 11 10 7 4 1 0 0 5 347 350 344 344 340 343 341 338 334
149 150 154 153 155 158 160 170 144 118 106 102 94 78 62 57 49 43 37 31 24 17 13 11 10 9 8 6 3 1 360 359 1 351 345 354 333 337 340 343 342 341 340
156 155 158 164 170 168 175 177 152 133 119 104 86 75 63 56 47 38 30 22 15 11 9 7 6 5 3 1 0 358 358 359 3 340 357 332 330 334 336 336 340 339 340
161 164 165 177 182 193 193 177 162 151 125 104 87 74 64 52 35 29 17 18 12 13 12 10 9 6 5 5 3 359 359 11 7 349 343 309 326 330 337 336 339 340 334
164 167 169 163 164 178 174 179 173 162 151 135 116 86 71 38 8 16 16 19 19 17 12 10 7 3 2 5 359 360 8 356 348 342 305 314 328 333 338 341 339 337 330
161 170 160 158 161 176 159 185 168 169 152 121 120 64 40 38 9 20 5 358 0 9 5 6 357 357 0 353 340 342 335 340 341 332 317 326 336 340 343 342 348 341 338
169 168 163 168 173 173 176 174 167 153 139 79 63 152 41 9 350 346 348 349 350 341 349 342 341 339 342 340 342 351 351 356 358 344 324 338 351 7 3 332 309 315 319
174 175 177 173 176 172 165 158 154 148 169 181 225 310 331 329 334 321 308 329 324 323 326 332 341 353 350 352 352 352 347 348 353 317 312 327 330 326 310 319 321 325 332
171 178 177 168 175 177 163 171 179 194 208 236 264 307 325 323 308 292 311 319 317 349 355 354 347 350 348 346 351 358 0 11 23 355 338 338 334 327 325 336 339 351 19
159 166 177 176 175 179 184 191 197 219 230 245 248 255 275 293 303 306 319 348 351 350 341 347 351 354 8 19 14 8 18 356 27 69 358 322 318 315 323 330 330 332 340
179 177 175 177 190 186 195 200 206 218 234 231 244 283 300 312 325 333 8 346 343 339 348 11 15 5 359 4 3 3 14 338 348 311 295 299 318 317 316 321 323 315 312
187 187 184 187 192 203 204 206 218 224 232 243 250 271 327 238 146 359 350 339 349 7 22 13 359 354 351 350 353 354 353 316 327 312 315 315 325 332 329 327 328 321 323
194 201 195 194 202 209 209 211 220 228 236 175 167 120 29 310 347 344 351 21 26 11 359 354 347 344 342 344 345 343 355 288 305 321 329 325 335 335 340 343 343 334 330
201 205 207 205 208 207 207 211 222 172 164 155 144 226 322 327 351 33 37 17 3 354 348 345 344 343 342 341 344 348 83 289 332 334 336 329 337 337 340 340 338 338 332
203 203 200 206 205 207 206 195 215 170 165 170 245 263 304 36 70 22 3 354 348 347 348 348 346 345 343 346 348 355 30 302 303 353 327 332 343 342 342 343 339 335 332
189 185 191 188 198 191 189 181 184 182 185 194 191 215 139 99 35 0 351 349 350 350 349 350 353 355 355 360 6 14 337 334 254 323 324 331 334 339 339 344 336 333 327
185 181 184 186 186 185 187 176 174 174 191 183 176 153 137 7 355 352 348 348 350 352 355 358 360 2 7 5 10 17 1 325 315 251 336 338 329 342 337 341 332 331 320
179 182 177 185 184 179 175 162 174 176 187 175 168 173 292 343 348 348 352 350 353 355 358 360 6 5 5 9 7 14 1 321 316 311 306 328 325 331 329 335 323 324 320
173 182 189 176 177 171 172 175 172 181 174 175 173 192 349 346 348 352 355 354 353 354 359 360 6 9 11 10 12 10 4 351 312 307 310 317 321 327 323 326 317 315 314
165 177 181 173 169 172 168 167 166 167 173 183 176 355 340 337 347 354 353 348 348 355 359 7 10 10 9 9 5 360 355 353 312 318 308 314 313 319 325 325 315 313 311
Wind_Speed_850mb
29 29 22 20 29 34 28 20 14 17 19 16 13 10 10 13 16 19 20 22 23 23 23 23 23 23 23 23 22 22 22 21 21 21 20 19 18 17 16 12 6 10 9
35 30 24 20 26 31 22 15 11 13 15 13 12 11 12 15 16 18 20 22 21 21 22 23 22 22 22 21 21 20 20 20 19 18 19 20 20 18 17 16 15 15 15
32 30 25 23 27 27 24 19 17 16 15 17 17 16 16 16 17 19 20 20 20 21 20 20 20 20 20 20 20 20 20 20 19 19 17 17 17 18 18 18 18 19 19
34 30 27 30 28 25 26 21 19 18 18 17 16 16 17 17 17 16 17 17 16 17 17 18 18 18 19 19 20 21 20 20 20 19 19 18 17 22 22 21 20 20 20
33 31 31 30 26 25 20 16 16 18 18 18 17 16 15 15 15 14 14 15 15 17 16 17 18 20 21 20 19 20 21 23 23 24 19 19 21 19 25 25 24 24 26
32 29 37 33 27 25 20 13 11 15 16 16 15 14 13 12 13 14 14 15 16 16 17 19 22 22 23 22 23 24 24 24 23 15 18 20 23 27 28 28 27 27 27
34 34 35 31 28 27 18 12 7 13 14 13 13 12 11 11 11 12 14 14 15 16 18 19 20 20 20 22 23 23 24 25 24 20 21 23 21 27 26 26 25 26 27
33 33 35 30 28 29 21 12 7 10 11 11 10 9 10 11 12 14 15 15 17 18 19 20 21 22 23 23 23 24 25 26 24 17 22 22 22 27 26 25 28 31 32
31 26 27 28 31 26 19 11 10 11 11 10 9 9 11 11 12 13 14 16 18 20 22 23 24 24 25 25 26 26 27 26 24 18 21 15 29 29 29 28 28 29 31
30 29 28 24 26 26 21 16 10 9 7 7 8 8 8 9 12 14 14 16 17 20 22 23 23 23 24 25 26 27 26 24 25 17 16 20 28 28 28 30 30 29 28
29 27 31 26 23 20 21 17 10 9 7 5 4 5 5 10 9 11 13 16 18 20 22 23 24 26 26 29 30 30 27 18 18 15 18 28 30 31 31 30 28 25 25
30 25 30 23 26 19 16 15 10 8 6 5 5 4 6 4 8 10 14 16 18 18 20 21 23 26 27 21 19 25 20 22 15 18 25 30 28 27 25 22 19 19 20
29 31 32 26 24 23 19 16 12 11 8 6 6 2 2 5 7 14 14 13 19 18 13 17 18 24 29 29 27 25 24 21 22 14 22 26 22 16 12 13 18 22 23
28 29 30 30 25 23 11 14 11 9 10 6 2 3 5 8 11 11 8 14 17 21 19 19 21 25 27 24 23 23 21 17 15 12 21 24 23 22 22 25 23 25 28
29 27 29 24 20 16 19 16 18 15 12 7 5 6 9 11 12 18 20 24 20 17 18 20 23 24 27 24 21 20 19 18 12 11 15 18 16 17 21 22 23 24 23
25 26 23 25 23 22 24 25 22 14 11 8 7 8 9 13 17 19 15 13 15 17 21 20 21 21 20 19 19 21 17 10 13 9 12 23 17 19 22 25 25 23 24
32 31 33 37 37 32 31 24 19 14 14 17 12 10 11 11 2 3 8 13 17 17 15 17 14 18 21 22 21 20 13 16 8 11 13 16 19 27 27 30 32 31 37
29 30 32 29 32 34 27 19 16 21 19 15 13 9 10 8 4 5 12 16 14 15 18 18 20 23 26 27 25 17 8 19 12 18 18 21 22 27 36 39 36 37 38
34 34 35 35 36 33 28 29 26 24 19 15 9 3 1 4 5 9 10 11 13 16 20 23 26 29 31 31 29 20 6 20 12 17 20 23 29 33 35 37 39 41 41
32 37 39 40 38 34 35 29 20 24 16 12 6 1 4 6 7 8 11 12 15 19 21 24 28 30 33 34 29 21 2 19 12 17 17 28 33 35 36 36 32 27 38
34 38 43 44 41 37 34 30 25 23 13 9 5 4 5 1 7 8 11 15 19 22 26 28 28 29 30 30 27 22 3 12 12 14 26 28 32 36 38 37 34 35 34
32 35 40 44 42 39 38 35 23 15 13 7 6 4 5 4 5 10 15 19 22 24 26 27 27 27 28 30 29 17 10 5 19 16 17 32 34 36 37 38 34 36 42
33 36 40 44 43 41 45 39 27 19 10 10 9 9 3 4 8 12 17 20 23 24 26 27 28 28 26 27 26 18 8 7 38 7 17 27 37 39 40 41 31 32 42
32 34 36 36 41 43 34 27 20 10 11 14 12 6 0 7 12 15 18 21 22 23 23 25 24 25 25 25 21 20 14 14 8 21 29 28 44 39 44 46 32 31 40
31 32 39 42 41 35 29 23 14 15 17 15 10 2 5 10 13 17 19 20 22 22 21 21 23 24 25 25 24 23 18 10 15 23 35 46 50 50 42 45 35 35 47
38 32 32 34 36 34 26 21 19 18 16 11 4 2 6 9 12 16 20 20 18 18 20 22 25 26 26 26 27 27 25 20 21 21 33 40 41 33 46 30 41 40 52
Wind_Direction_850mb
159 157 143 134 134 142 141 145 116 119 130 139 145 113 99 81 84 85 82 78 71 68 65 60 56 52 51 50 46 43 41 41 39 36 33 28 24 19 16 21 11 345 314
165 154 141 138 140 149 147 139 128 125 133 134 126 112 103 93 86 79 74 70 67 61 56 52 47 43 41 39 39 37 34 32 29 27 22 21 13 7 2 357 351 344 337
151 149 133 130 134 130 125 112 113 114 117 119 115 107 97 86 77 72 67 62 57 54 49 45 40 35 31 29 27 27 25 24 21 18 17 15 354 359 350 346 342 337 332
150 143 145 136 131 128 129 108 104 111 112 107 101 96 90 83 76 68 65 60 53 48 39 33 29 25 25 20 16 14 14 15 13 11 15 355 359 340 345 340 337 333 332
143 149 148 144 150 143 137 117 104 116 114 111 102 93 85 78 73 66 55 47 40 34 30 25 21 20 15 13 12 10 6 6 5 12 349 344 350 338 347 347 347 344 341
148 152 149 145 150 159 136 119 96 111 113 113 107 97 85 75 65 55 45 36 30 27 23 19 16 16 12 8 6 3 1 1 358 3 349 342 352 349 345 344 343 340 336
149 165 159 148 154 157 141 144 120 125 123 115 107 95 78 60 50 42 34 33 32 27 20 18 17 14 11 10 7 4 1 0 0 5 347 350 344 344 340 343 341 338 334
149 150 154 153 155 158 160 170 144 118 106 102 94 78 62 57 49 43 37 31 24 17 13 11 10 9 8 6 3 1 360 359 1 351 345 354 333 337 340 343 342 341 340
156 155 158 164 170 168 175 177 152 133 119 104 86 75 63 56 47 38 30 22 15 11 9 7 6 5 3 1 0 358 358 359 3 340 357 332 330 334 336 336 340 339 340
161 164 165 177 182 193 193 177 162 151 125 104 87 74 64 52 35 29 17 18 12 13 12 10 9 6 5 5 3 359 359 11 7 349 343 309 326 330 337 336 339 340 334
164 167 169 163 164 178 174 179 173 162 151 135 116 86 71 38 8 16 16 19 19 17 12 10 7 3 2 5 359 360 8 356 348 342 305 314 328 333 338 341 339 337 330
161 170 160 158 161 176 159 185 168 169 152 121 120 64 40 38 9 20 5 358 0 9 5 6 357 357 0 353 340 342 335 340 341 332 317 326 336 340 343 342 348 341 338
169 168 163 168 173 173 176 174 167 153 139 79 63 152 41 9 350 346 348 349 350 341 349 342 341 339 342 340 342 351 351 356 358 344 324 338 351 7 3 332 309 315 319
174 175 177 173 176 172 165 158 154 148 169 181 225 310 331 329 334 321 308 329 324 323 326 332 341 353 350 352 352 352 347 348 353 317 312 327 330 326 310 319 321 325 332
171 178 177 168 175 177 163 171 179 194 208 236 264 307 325 323 308 292 311 319 317 349 355 354 347 350 348 346 351 358 0 11 23 355 338 338 334 327 325 336 339 351 19
159 166 177 176 175 179 184 191 197 219 230 245 248 255 275 293 303 306 319 348 351 350 341 347 351 354 8 19 14 8 18 356 27 69 358 322 318 315 323 330 330 332 340
179 177 175 177 190 186 195 200 206 218 234 231 244 283 300 312 325 333 8 346 343 339 348 11 15 5 359 4 3 3 14 338 348 311 295 299 318 317 316 321 323 315 312
187 187 184 187 192 203 204 206 218 224 232 243 250 271 327 238 146 359 350 339 349 7 22 13 359 354 351 350 353 354 353 316 327 312 315 315 325 332 329 327 328 321 323
194 201 195 194 202 209 209 211 220 228 236 175 167 120 29 310 347 344 351 21 26 11 359 354 347 344 342 344 345 343 355 288 305 321 329 325 335 335 340 343 343 334 330
201 205 207 205 208 207 207 211 222 172 164 155 144 226 322 327 351 33 37 17 3 354 348 345 344 343 342 341 344 348 83 289 332 334 336 329 337 337 340 340 338 338 332
203 203 200 206 205 207 206 195 215 170 165 170 245 263 304 36 70 22 3 354 348 347 348 348 346 345 343 346 348 355 30 302 303 353 327 332 343 342 342 343 339 335 332
189 185 191 188 198 191 189 181 184 182 185 194 191 215 139 99 35 0 351 349 350 350 349 350 353 355 355 360 6 14 337 334 254 323 324 331 334 339 339 344 336 333 327
185 181 184 186 186 185 187 176 174 174 191 183 176 153 137 7 355 352 348 348 350 352 355 358 360 2 7 5 10 17 1 325 315 251 336 338 329 342 337 341 332 331 320
179 182 177 185 184 179 175 162 174 176 187 175 168 173 292 343 348 348 352 350 353 355 358 360 6 5 5 9 7 14 1 321 316 311 306 328 325 331 329 335 323 324 320
173 182 189 176 177 171 172 175 172 181 174 175 173 192 349 346 348 352 355 354 353 354 359 360 6 9 11 10 12 10 4 351 312 307 310 317 321 327 323 326 317 315 314
165 177 181 173 169 172 168 167 166 167 173 183 176 355 340 337 347 354 353 348 348 355 359 7 10 10 9 9 5 360 355 353 312 318 308 314 313 319 325 325 315 313 311